Weather in Belopillia

Ukraine / Sumi District     51°08′45″N   34°18′19″E
temp.,
°C
wind,
m/s
gust,
m/s
humid.,
%
clouds,
%
prec.,
mm/h
press.,
hPa
HPBL,
m
27 october, wed
wed2700:00+3ssw4126320 0.0 1028264
03:00+2ssw5126526 0.0 1027258
06:00+2ssw513706 0.0 1025288
09:00+3ssw613730 0.0 1024402
12:00+8sw710670 0.0 1023713
15:00+10wsw686110 0.0 1022978
18:00+8wsw3865100 0.0 1023323
21:00+7w377192 0.0 1023213
28 october, thu
thu2800:00+4w368647 0.0 1023100
03:00+4wsw3693100 0.0 1023123
06:00+5wsw41090100 0.0 1022232
09:00+6sw61387100 0.8 1020387
12:00+8w51181100 0.1 1020521
15:00+8w51088100 0.5 1020451
18:00+9wnw41088100 0.1 1021382
21:00+8w369378 0.1 1022171
29 october, fri
fri2900:00+6nw38966 0.0 1024173
03:00+5n36925 0.0 1025100
06:00+4nne33895 0.0 102743
09:00+5nne24845 0.0 1029129
12:00+10ene23700 0.0 1029466
15:00+11e22620 0.0 1029736
18:00+8ene12770 0.0 103010
21:00+6ese22840 0.0 103121
30 october, sat
sat3000:00+5sse34880 0.0 103244
03:00+4sse34910 0.0 103250
06:00+4sse33920 0.0 103239
09:00+5sse25895 0.0 1033150
12:00+10s45670 0.0 1033481
15:00+12s45585 0.0 1032756
18:00+8sse33735 0.0 103243
21:00+7sse34785 0.0 103251
31 october, sun
sun3100:00+6sse34780 0.0 103243
03:00+5sse33790 0.0 103234
05:00+4sse33820 0.0 103238
08:00+5se35780 0.0 1031129
11:00+10sse46590 0.0 1030495
14:00+12sse45540 0.0 1028753
17:00+8se35680 0.0 102879
20:00+6se38720 0.0 1027122